Tracking 19280 objects as of 15-Nov-2018
HD Live streaming from Space Station
objects crossing your sky now

O3B FM16

Track O3B FM16 now!
10-day predictions
O3B FM16 is classified as:


NORAD ID: 43232
Int'l Code: 2018-024B
Perigee: 8,068.5 km
Apogee: 8,077.5 km
Inclination: 0.0 °
Period: 287.9 minutes
Semi major axis: 14444 km
RCS: Unknown
Launch date: March 9, 2018
Source: O3b Networks (O3B)
Launch site: FRENCH GUIANA (FRGUI)
aabbcc
Your satellite tracking list
Your tracking list is empty




NASA's NSSDC Master Catalog

Two Line Element Set (TLE):
1 43232U 18024B   18317.45723069 -.00000027 +00000-0 +00000-0 0  9995
2 43232 000.0366 001.7907 0003117 233.9909 124.1944 05.00116148012466
Source of the keplerian elements: AFSPC